Location: Unspecified
(54.1780°N, 0.0000°E)
Time: 17:55:29
(UTC+00:00)

Explorer 7 - Pass Details

Date: 19 June 2019
Orbit: 485 x 680 km, 50.3° (Epoch: 15 July)

Event Time Altitude Azimuth Distance (km) Brightness Sun altitude
Rises 13:25:15 0° 268° (W) 2,929 10.8 55.5°
Reaches altitude 10° 13:27:34 10° 264° (W) 2,046 10.2 55.3°
Maximum altitude 13:32:10 51° 189° (S) 835 9.6 54.9°
Drops below altitude 10° 13:36:54 10° 114° (ESE) 2,112 9.8 54.4°
Sets 13:39:20 0° 109° (ESE) 3,032 10.5 54.2°
